Year,Month,Day,Hour,Minute,Value (Times are PST for temperature in C)
2010,07,15,00,00,13.80
2010,07,15,00,01,13.80
2010,07,15,00,02,13.70
2010,07,15,00,03,13.70
2010,07,15,00,04,13.70
2010,07,15,00,05,13.70
2010,07,15,00,06,13.60
2010,07,15,00,07,13.60
2010,07,15,00,08,13.60
2010,07,15,00,09,13.60
2010,07,15,00,10,13.50
2010,07,15,00,11,13.50
2010,07,15,00,12,13.50
2010,07,15,00,13,13.40
2010,07,15,00,14,13.40
2010,07,15,00,15,13.40
2010,07,15,00,16,13.30
2010,07,15,00,17,13.30
2010,07,15,00,18,13.30
2010,07,15,00,19,13.30
2010,07,15,00,20,13.30
2010,07,15,00,21,13.20
2010,07,15,00,22,13.20
2010,07,15,00,23,13.20
2010,07,15,00,24,13.20
2010,07,15,00,25,13.10
2010,07,15,00,26,13.10
2010,07,15,00,27,13.10
2010,07,15,00,28,13.10
2010,07,15,00,29,13.00
2010,07,15,00,30,13.00
2010,07,15,00,31,13.00
2010,07,15,00,32,12.90
2010,07,15,00,33,12.90
2010,07,15,00,34,12.90
2010,07,15,00,35,12.90
2010,07,15,00,36,12.90
2010,07,15,00,37,12.80
2010,07,15,00,38,12.80
2010,07,15,00,39,12.80
2010,07,15,00,40,12.80
2010,07,15,00,41,12.80
2010,07,15,00,42,12.80
2010,07,15,00,43,12.80
2010,07,15,00,44,12.70
2010,07,15,00,45,12.70
2010,07,15,00,46,12.70
2010,07,15,00,47,12.70
2010,07,15,00,48,12.70
2010,07,15,00,49,12.70
2010,07,15,00,50,12.70
2010,07,15,00,51,12.70
2010,07,15,00,52,12.60
2010,07,15,00,53,12.60
2010,07,15,00,54,12.60
2010,07,15,00,55,12.50
2010,07,15,00,56,12.60
2010,07,15,00,57,12.50
2010,07,15,00,58,12.50
2010,07,15,00,59,12.50
2010,07,15,01,00,12.50
2010,07,15,01,01,12.50
2010,07,15,01,02,12.50
2010,07,15,01,03,12.50
2010,07,15,01,04,12.50
2010,07,15,01,05,12.40
2010,07,15,01,06,12.40
2010,07,15,01,07,12.40
2010,07,15,01,08,12.40
2010,07,15,01,09,12.40
2010,07,15,01,10,12.40
2010,07,15,01,11,12.40
2010,07,15,01,12,12.40
2010,07,15,01,13,12.40
2010,07,15,01,14,12.40
2010,07,15,01,15,12.30
2010,07,15,01,16,12.30
2010,07,15,01,17,12.30
2010,07,15,01,18,12.30
2010,07,15,01,19,12.30
2010,07,15,01,20,12.30
2010,07,15,01,21,12.30
2010,07,15,01,22,12.30
2010,07,15,01,23,12.20
2010,07,15,01,24,12.20
2010,07,15,01,25,12.20
2010,07,15,01,26,12.20
2010,07,15,01,27,12.20
2010,07,15,01,28,12.20
2010,07,15,01,29,12.20
2010,07,15,01,30,12.20
2010,07,15,01,31,12.20
2010,07,15,01,32,12.20
2010,07,15,01,33,12.20
2010,07,15,01,34,12.20
2010,07,15,01,35,12.20
2010,07,15,01,36,12.20
2010,07,15,01,37,12.20
2010,07,15,01,38,12.20
2010,07,15,01,39,12.20
2010,07,15,01,40,12.20
2010,07,15,01,41,12.20
2010,07,15,01,42,12.20
2010,07,15,01,43,12.20
2010,07,15,01,44,12.20
2010,07,15,01,45,12.20
2010,07,15,01,46,12.20
2010,07,15,01,47,12.20
2010,07,15,01,48,12.20
2010,07,15,01,49,12.20
2010,07,15,01,50,12.20
2010,07,15,01,51,12.20
2010,07,15,01,52,12.20
2010,07,15,01,53,12.20
2010,07,15,01,54,12.20
2010,07,15,01,55,12.20
2010,07,15,01,56,12.20
2010,07,15,01,57,12.20
2010,07,15,01,58,12.20
2010,07,15,01,59,12.20
2010,07,15,02,00,12.20
2010,07,15,02,01,12.20
2010,07,15,02,02,12.20
2010,07,15,02,03,12.10
2010,07,15,02,04,12.10
2010,07,15,02,05,12.10
2010,07,15,02,06,12.10
2010,07,15,02,07,12.10
2010,07,15,02,08,12.10
2010,07,15,02,09,12.10
2010,07,15,02,10,12.10
2010,07,15,02,11,12.10
2010,07,15,02,12,12.10
2010,07,15,02,13,12.10
2010,07,15,02,14,12.10
2010,07,15,02,15,12.10
2010,07,15,02,16,12.10
2010,07,15,02,17,12.10
2010,07,15,02,18,12.20
2010,07,15,02,19,12.20
2010,07,15,02,20,12.20
2010,07,15,02,21,12.20
2010,07,15,02,22,12.20
2010,07,15,02,23,12.20
2010,07,15,02,24,12.20
2010,07,15,02,25,12.20
2010,07,15,02,26,12.20
2010,07,15,02,27,12.20
2010,07,15,02,28,12.20
2010,07,15,02,29,12.20
2010,07,15,02,30,12.20
2010,07,15,02,31,12.20
2010,07,15,02,32,12.20
2010,07,15,02,33,12.20
2010,07,15,02,34,12.10
2010,07,15,02,35,12.10
2010,07,15,02,36,12.10
2010,07,15,02,37,12.10
2010,07,15,02,38,12.10
2010,07,15,02,39,12.10
2010,07,15,02,40,12.10
2010,07,15,02,41,12.10
2010,07,15,02,42,12.20
2010,07,15,02,43,12.20
2010,07,15,02,44,12.20
2010,07,15,02,45,12.20
2010,07,15,02,46,12.20
2010,07,15,02,47,12.20
2010,07,15,02,48,12.20
2010,07,15,02,49,12.20
2010,07,15,02,50,12.20
2010,07,15,02,51,12.20
2010,07,15,02,52,12.20
2010,07,15,02,53,12.20
2010,07,15,02,54,12.20
2010,07,15,02,55,12.20
2010,07,15,02,56,12.20
2010,07,15,02,57,12.20
2010,07,15,02,58,12.20
2010,07,15,02,59,12.20
2010,07,15,03,00,12.10
2010,07,15,03,01,12.10
2010,07,15,03,02,12.10
2010,07,15,03,03,12.10
2010,07,15,03,04,12.10
2010,07,15,03,05,12.10
2010,07,15,03,06,12.10
2010,07,15,03,07,12.10
2010,07,15,03,08,12.00
2010,07,15,03,09,12.00
2010,07,15,03,10,12.00
2010,07,15,03,11,11.90
2010,07,15,03,12,11.90
2010,07,15,03,13,11.90
2010,07,15,03,14,11.90
2010,07,15,03,15,11.90
2010,07,15,03,16,11.90
2010,07,15,03,17,11.90
2010,07,15,03,18,11.80
2010,07,15,03,19,11.80
2010,07,15,03,20,11.80
2010,07,15,03,21,11.80
2010,07,15,03,22,11.80
2010,07,15,03,23,11.80
2010,07,15,03,24,11.80
2010,07,15,03,25,11.70
2010,07,15,03,26,11.70
2010,07,15,03,27,11.70
2010,07,15,03,28,11.70
2010,07,15,03,29,11.70
2010,07,15,03,30,11.70
2010,07,15,03,31,11.70
2010,07,15,03,32,11.70
2010,07,15,03,33,11.70
2010,07,15,03,34,11.70
2010,07,15,03,35,11.70
2010,07,15,03,36,11.70
2010,07,15,03,37,11.70
2010,07,15,03,38,11.70
2010,07,15,03,39,11.70
2010,07,15,03,40,11.70
2010,07,15,03,41,11.70
2010,07,15,03,42,11.70
2010,07,15,03,43,11.70
2010,07,15,03,44,11.70
2010,07,15,03,45,11.70
2010,07,15,03,46,11.60
2010,07,15,03,47,11.60
2010,07,15,03,48,11.60
2010,07,15,03,49,11.60
2010,07,15,03,50,11.60
2010,07,15,03,51,11.60
2010,07,15,03,52,11.60
2010,07,15,03,53,11.60
2010,07,15,03,54,11.60
2010,07,15,03,55,11.60
2010,07,15,03,56,11.50
2010,07,15,03,57,11.50
2010,07,15,03,58,11.50
2010,07,15,03,59,11.50
2010,07,15,04,00,11.50
2010,07,15,04,01,11.50
2010,07,15,04,02,11.50
2010,07,15,04,03,11.50
2010,07,15,04,04,11.40
2010,07,15,04,05,11.50
2010,07,15,04,06,11.50
2010,07,15,04,07,11.50
2010,07,15,04,08,11.50
2010,07,15,04,09,11.40
2010,07,15,04,10,11.40
2010,07,15,04,11,11.40
2010,07,15,04,12,11.40
2010,07,15,04,13,11.40
2010,07,15,04,14,11.40
2010,07,15,04,15,11.40
2010,07,15,04,16,11.40
2010,07,15,04,17,11.40
2010,07,15,04,18,11.40
2010,07,15,04,19,11.40
2010,07,15,04,20,11.40
2010,07,15,04,21,11.40
2010,07,15,04,22,11.40
2010,07,15,04,23,11.40
2010,07,15,04,24,11.40
2010,07,15,04,25,11.40
2010,07,15,04,26,11.40
2010,07,15,04,27,11.40
2010,07,15,04,28,11.40
2010,07,15,04,29,11.40
2010,07,15,04,30,11.40
2010,07,15,04,31,11.40
2010,07,15,04,32,11.50
2010,07,15,04,33,11.40
2010,07,15,04,34,11.50
2010,07,15,04,35,11.50
2010,07,15,04,36,11.50
2010,07,15,04,37,11.50
2010,07,15,04,38,11.50
2010,07,15,04,39,11.50
2010,07,15,04,40,11.40
2010,07,15,04,41,11.40
2010,07,15,04,42,11.40
2010,07,15,04,43,11.40
2010,07,15,04,44,11.40
2010,07,15,04,45,11.40
2010,07,15,04,46,11.50
2010,07,15,04,47,11.50
2010,07,15,04,48,11.50
2010,07,15,04,49,11.50
2010,07,15,04,50,11.50
2010,07,15,04,51,11.40
2010,07,15,04,52,11.40
2010,07,15,04,53,11.40
2010,07,15,04,54,11.30
2010,07,15,04,55,11.30
2010,07,15,04,56,11.30
2010,07,15,04,57,11.30
2010,07,15,04,58,11.30
2010,07,15,04,59,11.20
2010,07,15,05,00,11.20
2010,07,15,05,01,11.20
2010,07,15,05,02,11.20
2010,07,15,05,03,11.10
2010,07,15,05,04,11.10
2010,07,15,05,05,11.10
2010,07,15,05,06,11.10
2010,07,15,05,07,11.10
2010,07,15,05,08,11.10
2010,07,15,05,09,11.10
2010,07,15,05,10,11.10
2010,07,15,05,11,11.10
2010,07,15,05,12,11.10
2010,07,15,05,13,11.10
2010,07,15,05,14,11.10
2010,07,15,05,15,11.10
2010,07,15,05,16,11.10
2010,07,15,05,17,11.10
2010,07,15,05,18,11.10
2010,07,15,05,19,11.10
2010,07,15,05,20,11.10
2010,07,15,05,21,11.10
2010,07,15,05,22,11.00
2010,07,15,05,23,11.00
2010,07,15,05,24,11.00
2010,07,15,05,25,11.00
2010,07,15,05,26,11.00
2010,07,15,05,27,11.10
2010,07,15,05,28,11.10
2010,07,15,05,29,11.10
2010,07,15,05,30,11.10
2010,07,15,05,31,11.10
2010,07,15,05,32,11.10
2010,07,15,05,33,11.10
2010,07,15,05,34,11.10
2010,07,15,05,35,11.20
2010,07,15,05,36,11.20
2010,07,15,05,37,11.20
2010,07,15,05,38,11.20
2010,07,15,05,39,11.20
2010,07,15,05,40,11.20
2010,07,15,05,41,11.20
2010,07,15,05,42,11.10
2010,07,15,05,43,11.10
2010,07,15,05,44,11.10
2010,07,15,05,45,11.10
2010,07,15,05,46,11.10
2010,07,15,05,47,11.10
2010,07,15,05,48,11.10
2010,07,15,05,49,11.10
2010,07,15,05,50,11.00
2010,07,15,05,51,11.00
2010,07,15,05,52,11.00
2010,07,15,05,53,11.10
2010,07,15,05,54,11.10
2010,07,15,05,55,11.10
2010,07,15,05,56,11.10
2010,07,15,05,57,11.10
2010,07,15,05,58,11.10
2010,07,15,05,59,11.10
2010,07,15,06,00,11.10
2010,07,15,06,01,11.20
2010,07,15,06,02,11.20
2010,07,15,06,03,11.20
2010,07,15,06,04,11.20
2010,07,15,06,05,11.20
2010,07,15,06,06,11.30
2010,07,15,06,07,11.30
2010,07,15,06,08,11.30
2010,07,15,06,09,11.30
2010,07,15,06,10,11.30
2010,07,15,06,11,11.40
2010,07,15,06,12,11.50
2010,07,15,06,13,11.50
2010,07,15,06,14,11.60
2010,07,15,06,15,11.60
2010,07,15,06,16,11.70
2010,07,15,06,17,11.70
2010,07,15,06,18,11.70
2010,07,15,06,19,11.70
2010,07,15,06,20,11.80
2010,07,15,06,21,11.80
2010,07,15,06,22,11.80
2010,07,15,06,23,11.80
2010,07,15,06,24,11.80
2010,07,15,06,25,11.80
2010,07,15,06,26,11.80
2010,07,15,06,27,11.90
2010,07,15,06,28,11.80
2010,07,15,06,29,11.80
2010,07,15,06,30,11.80
2010,07,15,06,31,11.80
2010,07,15,06,32,11.80
2010,07,15,06,33,11.80
2010,07,15,06,34,11.80
2010,07,15,06,35,11.80
2010,07,15,06,36,11.80
2010,07,15,06,37,11.80
2010,07,15,06,38,11.80
2010,07,15,06,39,11.80
2010,07,15,06,40,11.90
2010,07,15,06,41,11.90
2010,07,15,06,42,12.00
2010,07,15,06,43,12.00
2010,07,15,06,44,12.10
2010,07,15,06,45,12.10
2010,07,15,06,46,12.10
2010,07,15,06,47,12.20
2010,07,15,06,48,12.20
2010,07,15,06,49,12.20
2010,07,15,06,50,12.20
2010,07,15,06,51,12.30
2010,07,15,06,52,12.30
2010,07,15,06,53,12.30
2010,07,15,06,54,12.40
2010,07,15,06,55,12.40
2010,07,15,06,56,12.50
2010,07,15,06,57,12.50
2010,07,15,06,58,12.60
2010,07,15,06,59,12.60
2010,07,15,07,00,12.60
2010,07,15,07,01,12.70
2010,07,15,07,02,12.70
2010,07,15,07,03,12.80
2010,07,15,07,04,12.90
2010,07,15,07,05,13.00
2010,07,15,07,06,13.00
2010,07,15,07,07,13.10
2010,07,15,07,08,13.20
2010,07,15,07,09,13.30
2010,07,15,07,10,13.30
2010,07,15,07,11,13.40
2010,07,15,07,12,13.40
2010,07,15,07,13,13.40
2010,07,15,07,14,13.50
2010,07,15,07,15,13.50
2010,07,15,07,16,13.60
2010,07,15,07,17,13.60
2010,07,15,07,18,13.60
2010,07,15,07,19,13.60
2010,07,15,07,20,13.60
2010,07,15,07,21,13.70
2010,07,15,07,22,13.70
2010,07,15,07,23,13.70
2010,07,15,07,24,13.80
2010,07,15,07,25,13.80
2010,07,15,07,26,13.90
2010,07,15,07,27,13.90
2010,07,15,07,28,14.00
2010,07,15,07,29,14.00
2010,07,15,07,30,14.10
2010,07,15,07,31,14.10
2010,07,15,07,32,14.10
2010,07,15,07,33,14.20
2010,07,15,07,34,14.20
2010,07,15,07,35,14.30
2010,07,15,07,36,14.30
2010,07,15,07,37,14.40
2010,07,15,07,38,14.50
2010,07,15,07,39,14.60
2010,07,15,07,40,14.70
2010,07,15,07,41,14.80
2010,07,15,07,42,14.80
2010,07,15,07,43,14.90
2010,07,15,07,44,15.00
2010,07,15,07,45,15.00
2010,07,15,07,46,15.10
2010,07,15,07,47,15.10
2010,07,15,07,48,15.10
2010,07,15,07,49,15.10
2010,07,15,07,50,15.20
2010,07,15,07,51,15.30
2010,07,15,07,52,15.30
2010,07,15,07,53,15.30
2010,07,15,07,54,15.40
2010,07,15,07,55,15.40
2010,07,15,07,56,15.40
2010,07,15,07,57,15.50
2010,07,15,07,58,15.50
2010,07,15,07,59,15.50
2010,07,15,08,00,15.60
2010,07,15,08,01,15.60
2010,07,15,08,02,15.70
2010,07,15,08,03,15.70
2010,07,15,08,04,15.70
2010,07,15,08,05,15.80
2010,07,15,08,06,15.80
2010,07,15,08,07,15.80
2010,07,15,08,08,15.80
2010,07,15,08,09,15.90
2010,07,15,08,10,15.90
2010,07,15,08,11,16.00
2010,07,15,08,12,16.10
2010,07,15,08,13,16.20
2010,07,15,08,14,16.20
2010,07,15,08,15,16.20
2010,07,15,08,16,16.20
2010,07,15,08,17,16.20
2010,07,15,08,18,16.20
2010,07,15,08,19,16.20
2010,07,15,08,20,16.30
2010,07,15,08,21,16.30
2010,07,15,08,22,16.30
2010,07,15,08,23,16.40
2010,07,15,08,24,16.40
2010,07,15,08,25,16.50
2010,07,15,08,26,16.60
2010,07,15,08,27,16.60
2010,07,15,08,28,16.60
2010,07,15,08,29,16.70
2010,07,15,08,30,16.70
2010,07,15,08,31,16.70
2010,07,15,08,32,16.80
2010,07,15,08,33,16.80
2010,07,15,08,34,16.80
2010,07,15,08,35,16.70
2010,07,15,08,36,16.70
2010,07,15,08,37,16.70
2010,07,15,08,38,16.70
2010,07,15,08,39,16.80
2010,07,15,08,40,17.00
2010,07,15,08,41,17.10
2010,07,15,08,42,17.10
2010,07,15,08,43,17.20
2010,07,15,08,44,17.30
2010,07,15,08,45,17.20
2010,07,15,08,46,17.20
2010,07,15,08,47,17.20
2010,07,15,08,48,17.20
2010,07,15,08,49,17.20
2010,07,15,08,50,17.20
2010,07,15,08,51,17.20
2010,07,15,08,52,17.30
2010,07,15,08,53,17.40
2010,07,15,08,54,17.30
2010,07,15,08,55,17.40
2010,07,15,08,56,17.40
2010,07,15,08,57,17.60
2010,07,15,08,58,17.70
2010,07,15,08,59,17.70
2010,07,15,09,00,17.80
2010,07,15,09,01,18.00
2010,07,15,09,02,18.00
2010,07,15,09,03,18.10
2010,07,15,09,04,18.10
2010,07,15,09,05,18.10
2010,07,15,09,06,18.00
2010,07,15,09,07,17.90
2010,07,15,09,08,17.90
2010,07,15,09,09,17.80
2010,07,15,09,10,17.80
2010,07,15,09,11,17.80
2010,07,15,09,12,17.80
2010,07,15,09,13,17.80
2010,07,15,09,14,17.90
2010,07,15,09,15,17.80
2010,07,15,09,16,17.80
2010,07,15,09,17,17.80
2010,07,15,09,18,17.70
2010,07,15,09,19,17.60
2010,07,15,09,20,17.60
2010,07,15,09,21,17.60
2010,07,15,09,22,17.60
2010,07,15,09,23,17.50
2010,07,15,09,24,17.50
2010,07,15,09,25,17.50
2010,07,15,09,26,17.60
2010,07,15,09,27,17.70
2010,07,15,09,28,17.70
2010,07,15,09,29,17.70
2010,07,15,09,30,17.60
2010,07,15,09,31,17.60
2010,07,15,09,32,17.50
2010,07,15,09,33,17.50
2010,07,15,09,34,17.40
2010,07,15,09,35,17.40
2010,07,15,09,36,17.40
2010,07,15,09,37,17.40
2010,07,15,09,38,17.40
2010,07,15,09,39,17.40
2010,07,15,09,40,17.50
2010,07,15,09,41,17.50
2010,07,15,09,42,17.60
2010,07,15,09,43,17.80
2010,07,15,09,44,18.00
2010,07,15,09,45,18.10
2010,07,15,09,46,18.20
2010,07,15,09,47,18.20
2010,07,15,09,48,18.20
2010,07,15,09,49,18.10
2010,07,15,09,50,18.10
2010,07,15,09,51,18.20
2010,07,15,09,52,18.20
2010,07,15,09,53,18.20
2010,07,15,09,54,18.20
2010,07,15,09,55,18.10
2010,07,15,09,56,18.10
2010,07,15,09,57,18.10
2010,07,15,09,58,18.10
2010,07,15,09,59,18.10
2010,07,15,10,00,18.10
2010,07,15,10,01,18.10
2010,07,15,10,02,18.20
2010,07,15,10,03,18.30
2010,07,15,10,04,18.30
2010,07,15,10,05,18.40
2010,07,15,10,06,18.50
2010,07,15,10,07,18.60
2010,07,15,10,08,18.60
2010,07,15,10,09,18.50
2010,07,15,10,10,18.50
2010,07,15,10,11,18.50
2010,07,15,10,12,18.40
2010,07,15,10,13,18.40
2010,07,15,10,14,18.50
2010,07,15,10,15,18.40
2010,07,15,10,16,18.40
2010,07,15,10,17,18.50
2010,07,15,10,18,18.60
2010,07,15,10,19,18.60
2010,07,15,10,20,18.70
2010,07,15,10,21,18.80
2010,07,15,10,22,18.80
2010,07,15,10,23,18.80
2010,07,15,10,24,18.80
2010,07,15,10,25,18.80
2010,07,15,10,26,18.70
2010,07,15,10,27,18.70
2010,07,15,10,28,18.80
2010,07,15,10,29,19.00
2010,07,15,10,30,19.10
2010,07,15,10,31,19.20
2010,07,15,10,32,19.10
2010,07,15,10,33,19.00
2010,07,15,10,34,19.00
2010,07,15,10,35,18.80
2010,07,15,10,36,18.70
2010,07,15,10,37,18.60
2010,07,15,10,38,18.60
2010,07,15,10,39,18.60
2010,07,15,10,40,18.50
2010,07,15,10,41,18.50
2010,07,15,10,42,18.50
2010,07,15,10,43,18.50
2010,07,15,10,44,18.40
2010,07,15,10,45,18.40
2010,07,15,10,46,18.30
2010,07,15,10,47,18.30
2010,07,15,10,48,18.40
2010,07,15,10,49,18.50
2010,07,15,10,50,18.50
2010,07,15,10,51,18.60
2010,07,15,10,52,18.70
2010,07,15,10,53,18.80
2010,07,15,10,54,18.80
2010,07,15,10,55,18.80
2010,07,15,10,56,18.80
2010,07,15,10,57,18.80
2010,07,15,10,58,18.90
2010,07,15,10,59,18.90
2010,07,15,11,00,18.90
2010,07,15,11,01,18.80
2010,07,15,11,02,18.80
2010,07,15,11,03,19.00
2010,07,15,11,04,19.00
2010,07,15,11,05,18.90
2010,07,15,11,06,18.90
2010,07,15,11,07,18.80
2010,07,15,11,08,18.70
2010,07,15,11,09,18.70
2010,07,15,11,10,18.70
2010,07,15,11,11,18.80
2010,07,15,11,12,18.90
2010,07,15,11,13,19.10
2010,07,15,11,14,19.20
2010,07,15,11,15,19.30
2010,07,15,11,16,19.30
2010,07,15,11,17,19.30
2010,07,15,11,18,19.40
2010,07,15,11,19,19.50
2010,07,15,11,20,19.60
2010,07,15,11,21,19.70
2010,07,15,11,22,19.80
2010,07,15,11,23,19.90
2010,07,15,11,24,19.70
2010,07,15,11,25,19.60
2010,07,15,11,26,19.50
2010,07,15,11,27,19.50
2010,07,15,11,28,19.50
2010,07,15,11,29,19.50
2010,07,15,11,30,19.50
2010,07,15,11,31,19.60
2010,07,15,11,32,19.70
2010,07,15,11,33,19.80
2010,07,15,11,34,19.90
2010,07,15,11,35,19.80
2010,07,15,11,36,19.80
2010,07,15,11,37,19.80
2010,07,15,11,38,19.90
2010,07,15,11,39,20.00
2010,07,15,11,40,20.00
2010,07,15,11,41,19.90
2010,07,15,11,42,19.70
2010,07,15,11,43,19.60
2010,07,15,11,44,19.40
2010,07,15,11,45,19.40
2010,07,15,11,46,19.40
2010,07,15,11,47,19.50
2010,07,15,11,48,19.60
2010,07,15,11,49,19.80
2010,07,15,11,50,19.90
2010,07,15,11,51,19.90
2010,07,15,11,52,19.90
2010,07,15,11,53,19.80
2010,07,15,11,54,19.70
2010,07,15,11,55,19.70
2010,07,15,11,56,19.70
2010,07,15,11,57,19.60
2010,07,15,11,58,19.60
2010,07,15,11,59,19.60
2010,07,15,12,00,19.70
2010,07,15,12,01,19.80
2010,07,15,12,02,20.00
2010,07,15,12,03,20.10
2010,07,15,12,04,20.00
2010,07,15,12,05,20.00
2010,07,15,12,06,19.80
2010,07,15,12,07,19.60
2010,07,15,12,08,19.50
2010,07,15,12,09,19.40
2010,07,15,12,10,19.20
2010,07,15,12,11,19.10
2010,07,15,12,12,19.00
2010,07,15,12,13,19.00
2010,07,15,12,14,19.10
2010,07,15,12,15,19.30
2010,07,15,12,16,19.50
2010,07,15,12,17,19.60
2010,07,15,12,18,19.70
2010,07,15,12,19,19.60
2010,07,15,12,20,19.60
2010,07,15,12,21,19.70
2010,07,15,12,22,19.90
2010,07,15,12,23,19.90
2010,07,15,12,24,19.90
2010,07,15,12,25,19.70
2010,07,15,12,26,19.50
2010,07,15,12,27,19.40
2010,07,15,12,28,19.20
2010,07,15,12,29,19.10
2010,07,15,12,30,19.10
2010,07,15,12,31,19.10
2010,07,15,12,32,19.00
2010,07,15,12,33,19.00
2010,07,15,12,34,19.10
2010,07,15,12,35,19.10
2010,07,15,12,36,19.20
2010,07,15,12,37,19.20
2010,07,15,12,38,19.10
2010,07,15,12,39,19.10
2010,07,15,12,40,19.10
2010,07,15,12,41,19.20
2010,07,15,12,42,19.20
2010,07,15,12,43,19.20
2010,07,15,12,44,19.20
2010,07,15,12,45,19.20
2010,07,15,12,46,19.20
2010,07,15,12,47,19.20
2010,07,15,12,48,19.30
2010,07,15,12,49,19.20
2010,07,15,12,50,19.20
2010,07,15,12,51,19.20
2010,07,15,12,52,19.30
2010,07,15,12,53,19.30
2010,07,15,12,54,19.30
2010,07,15,12,55,19.20
2010,07,15,12,56,19.30
2010,07,15,12,57,19.40
2010,07,15,12,58,19.40
2010,07,15,12,59,19.40
2010,07,15,13,00,19.40
2010,07,15,13,01,19.40
2010,07,15,13,02,19.40
2010,07,15,13,03,19.40
2010,07,15,13,04,19.40
2010,07,15,13,05,19.40
2010,07,15,13,06,19.50
2010,07,15,13,07,19.60
2010,07,15,13,08,19.80
2010,07,15,13,09,19.90
2010,07,15,13,10,19.90
2010,07,15,13,11,19.70
2010,07,15,13,12,19.60
2010,07,15,13,13,19.70
2010,07,15,13,14,19.70
2010,07,15,13,15,19.60
2010,07,15,13,16,19.80
2010,07,15,13,17,20.00
2010,07,15,13,18,20.20
2010,07,15,13,19,20.20
2010,07,15,13,20,20.10
2010,07,15,13,21,20.10
2010,07,15,13,22,20.10
2010,07,15,13,23,20.10
2010,07,15,13,24,20.10
2010,07,15,13,25,20.10
2010,07,15,13,26,20.10
2010,07,15,13,27,20.20
2010,07,15,13,28,20.40
2010,07,15,13,29,20.40
2010,07,15,13,30,20.50
2010,07,15,13,31,20.60
2010,07,15,13,32,20.70
2010,07,15,13,33,20.70
2010,07,15,13,34,20.60
2010,07,15,13,35,20.60
2010,07,15,13,36,20.50
2010,07,15,13,37,20.40
2010,07,15,13,38,20.40
2010,07,15,13,39,20.30
2010,07,15,13,40,20.30
2010,07,15,13,41,20.30
2010,07,15,13,42,20.30
2010,07,15,13,43,20.30
2010,07,15,13,44,20.20
2010,07,15,13,45,20.20
2010,07,15,13,46,20.20
2010,07,15,13,47,20.30
2010,07,15,13,48,20.50
2010,07,15,13,49,20.60
2010,07,15,13,50,20.60
2010,07,15,13,51,20.50
2010,07,15,13,52,20.50
2010,07,15,13,53,20.50
2010,07,15,13,54,20.60
2010,07,15,13,55,20.60
2010,07,15,13,56,20.50
2010,07,15,13,57,20.60
2010,07,15,13,58,20.60
2010,07,15,13,59,20.60
2010,07,15,14,00,20.60
2010,07,15,14,01,20.50
2010,07,15,14,02,20.50
2010,07,15,14,03,20.40
2010,07,15,14,04,20.40
2010,07,15,14,05,20.40
2010,07,15,14,06,20.40
2010,07,15,14,07,20.50
2010,07,15,14,08,20.50
2010,07,15,14,09,20.60
2010,07,15,14,10,20.60
2010,07,15,14,11,20.70
2010,07,15,14,12,20.70
2010,07,15,14,13,20.70
2010,07,15,14,14,20.80
2010,07,15,14,15,20.80
2010,07,15,14,16,20.80
2010,07,15,14,17,20.90
2010,07,15,14,18,21.00
2010,07,15,14,19,21.10
2010,07,15,14,20,21.00
2010,07,15,14,21,21.00
2010,07,15,14,22,21.00
2010,07,15,14,23,21.00
2010,07,15,14,24,21.10
2010,07,15,14,25,21.30
2010,07,15,14,26,21.40
2010,07,15,14,27,21.40
2010,07,15,14,28,21.40
2010,07,15,14,29,21.50
2010,07,15,14,30,21.50
2010,07,15,14,31,21.50
2010,07,15,14,32,21.50
2010,07,15,14,33,21.40
2010,07,15,14,34,21.40
2010,07,15,14,35,21.30
2010,07,15,14,36,21.20
2010,07,15,14,37,21.10
2010,07,15,14,38,21.10
2010,07,15,14,39,21.10
2010,07,15,14,40,21.10
2010,07,15,14,41,21.20
2010,07,15,14,42,21.30
2010,07,15,14,43,21.30
2010,07,15,14,44,21.20
2010,07,15,14,45,21.20
2010,07,15,14,46,21.30
2010,07,15,14,47,21.30
2010,07,15,14,48,21.40
2010,07,15,14,49,21.40
2010,07,15,14,50,21.40
2010,07,15,14,51,21.50
2010,07,15,14,52,21.40
2010,07,15,14,53,21.40
2010,07,15,14,54,21.40
2010,07,15,14,55,21.40
2010,07,15,14,56,21.40
2010,07,15,14,57,21.40
2010,07,15,14,58,21.40
2010,07,15,14,59,21.40
2010,07,15,15,00,21.40
2010,07,15,15,01,21.40
2010,07,15,15,02,21.40
2010,07,15,15,03,21.30
2010,07,15,15,04,21.30
2010,07,15,15,05,21.40
2010,07,15,15,06,21.50
2010,07,15,15,07,21.50
2010,07,15,15,08,21.40
2010,07,15,15,09,21.40
2010,07,15,15,10,21.40
2010,07,15,15,11,21.40
2010,07,15,15,12,21.50
2010,07,15,15,13,21.60
2010,07,15,15,14,21.70
2010,07,15,15,15,21.60
2010,07,15,15,16,21.60
2010,07,15,15,17,21.60
2010,07,15,15,18,21.60
2010,07,15,15,19,21.50
2010,07,15,15,20,21.30
2010,07,15,15,21,21.10
2010,07,15,15,22,20.90
2010,07,15,15,23,20.80
2010,07,15,15,24,20.70
2010,07,15,15,25,20.60
2010,07,15,15,26,20.60
2010,07,15,15,27,20.60
2010,07,15,15,28,20.70
2010,07,15,15,29,20.80
2010,07,15,15,30,21.00
2010,07,15,15,31,21.10
2010,07,15,15,32,21.20
2010,07,15,15,33,21.10
2010,07,15,15,34,21.00
2010,07,15,15,35,20.80
2010,07,15,15,36,20.70
2010,07,15,15,37,20.60
2010,07,15,15,38,20.40
2010,07,15,15,39,20.30
2010,07,15,15,40,20.20
2010,07,15,15,41,20.10
2010,07,15,15,42,19.90
2010,07,15,15,43,19.80
2010,07,15,15,44,19.70
2010,07,15,15,45,19.70
2010,07,15,15,46,19.70
2010,07,15,15,47,19.70
2010,07,15,15,48,19.80
2010,07,15,15,49,19.80
2010,07,15,15,50,19.80
2010,07,15,15,51,19.80
2010,07,15,15,52,19.80
2010,07,15,15,53,19.90
2010,07,15,15,54,19.90
2010,07,15,15,55,19.90
2010,07,15,15,56,19.90
2010,07,15,15,57,19.90
2010,07,15,15,58,20.00
2010,07,15,15,59,20.00
2010,07,15,16,00,20.00
2010,07,15,16,01,19.90
2010,07,15,16,02,19.90
2010,07,15,16,03,19.90
2010,07,15,16,04,19.80
2010,07,15,16,05,19.80
2010,07,15,16,06,19.80
2010,07,15,16,07,19.90
2010,07,15,16,08,20.00
2010,07,15,16,09,19.90
2010,07,15,16,10,19.80
2010,07,15,16,11,19.80
2010,07,15,16,12,19.70
2010,07,15,16,13,19.60
2010,07,15,16,14,19.50
2010,07,15,16,15,19.50
2010,07,15,16,16,19.40
2010,07,15,16,17,19.30
2010,07,15,16,18,19.10
2010,07,15,16,19,18.90
2010,07,15,16,20,18.80
2010,07,15,16,21,18.80
2010,07,15,16,22,18.90
2010,07,15,16,23,19.10
2010,07,15,16,24,19.30
2010,07,15,16,25,19.30
2010,07,15,16,26,19.30
2010,07,15,16,27,19.20
2010,07,15,16,28,19.10
2010,07,15,16,29,19.10
2010,07,15,16,30,19.10
2010,07,15,16,31,19.10
2010,07,15,16,32,19.00
2010,07,15,16,33,18.90
2010,07,15,16,34,18.90
2010,07,15,16,35,18.90
2010,07,15,16,36,19.00
2010,07,15,16,37,19.10
2010,07,15,16,38,19.10
2010,07,15,16,39,19.00
2010,07,15,16,40,18.90
2010,07,15,16,41,18.80
2010,07,15,16,42,18.60
2010,07,15,16,43,18.50
2010,07,15,16,44,18.40
2010,07,15,16,45,18.30
2010,07,15,16,46,18.20
2010,07,15,16,47,18.20
2010,07,15,16,48,18.20
2010,07,15,16,49,18.30
2010,07,15,16,50,18.50
2010,07,15,16,51,18.60
2010,07,15,16,52,18.90
2010,07,15,16,53,19.10
2010,07,15,16,54,19.20
2010,07,15,16,55,19.20
2010,07,15,16,56,19.10
2010,07,15,16,57,19.10
2010,07,15,16,58,19.00
2010,07,15,16,59,19.00
2010,07,15,17,00,19.00
2010,07,15,17,01,19.10
2010,07,15,17,02,19.30
2010,07,15,17,03,19.50
2010,07,15,17,04,19.60
2010,07,15,17,05,19.60
2010,07,15,17,06,19.60
2010,07,15,17,07,19.60
2010,07,15,17,08,19.60
2010,07,15,17,09,19.60
2010,07,15,17,10,19.80
2010,07,15,17,11,19.90
2010,07,15,17,12,19.90
2010,07,15,17,13,20.00
2010,07,15,17,14,20.00
2010,07,15,17,15,20.00
2010,07,15,17,16,20.10
2010,07,15,17,17,20.20
2010,07,15,17,18,20.20
2010,07,15,17,19,20.30